Location: Huesca
(42.1318°N, 0.4078°W)
Time: 21:21:00
(UTC+02:00)

DIWATA 2B (PO-101) - Pass Details

Date: 29 April 2024
Orbit: 575 x 589 km, 98.1° (Epoch: 20 May)

Event Time Altitude Azimuth Distance (km) Brightness Sun altitude
Rises 04:11:10 0° 122° (ESE) 2,814 ? -25.6°
Reaches altitude 10° 04:14:05 10° 99° (E) 1,917 ? -25.3°
Maximum altitude 04:16:29 15° 64° (ENE) 1,605 ? -25.1°
Drops below altitude 10° 04:18:54 10° 28° (NNE) 1,922 ? -24.8°
Sets 04:21:49 0° 6° (N) 2,825 ? -24.4°
